Showing default

COSMOS 2093, 20738

Orbit data source: Space-Track

COSMOS 2093, 20738 is a payload satellite owned by UNKS (CIS) in LEO that was launched on Wed, 08 Aug 1990 UTC via a TSIKLON-3 launch vehicle from the Plesetsk Missile And Space Complex (PKMTR). Payload-class satellites include a variety of spacecraft equipped with specific instruments for various scientific and technological missions. These include communications satellites like Starlink; space stations such as the ISS; scientific satellites like the Hubble; Earth observation satellites from companies like Planet Labs, Umbra, and HawkEye 360; GPS; miniature CubeSats for education and research; and military/defense satellites.

Loading next visibility...
Identifier
20738, 1990-070D
Orbit
LEO
Country
Flag of CISCIS
Related business
Manufacturer
NPO PM
Mission
Defense Communications
Bus & Motor
STRELA-3, Unknown motor
Mass
225 kg wet, 225 kg dry
Launch date (UTC)
1990-08-08 (35 years ago)
Launch vehicle
TSIKLON-3
Launch site
Plesetsk Missile And Space Complex (PKMTR)
Object type
Payload
Rocket body
Debris
Shape & HBR
Cyl, 0.8 m
Radar Cross Section
1.257 m², Large (>1 m²)

Expand to show TLE details & history
Last TLE update: 9 hours ago

TLE from 9 hours ago
0 COSMOS 2093
1 20738U 90070D   25353.25541270  .00000027  00000-0  89631-4 0  9990
2 20738  82.5754  56.1529 0009552 151.6291 270.3664 12.64088987631648
Epoch: 2025-12-19T06:07Z
TLE epoch observation values (Epoch: 2025-12-19T06:07:47.657Z)
Latitude
61.08664°
Longitude
-110.3169°
Altitude
1,416.464 km
Speed
7.158 km/s
True Right ascension
04h 38m 55s
True Declination
60° 57' 11"
Sunlit
Object was in full shadow at epoch
Visualization orbit readout
Latitude
Unknown
Longitude
Unknown
Altitude
Unknown
Speed
Unknown
Apparent Right ascension
Unknown
Apparent Declination
Unknown
Sunlit
N/A
Visualization observer readout
Local Sidereal Time
14:20:26
Azimuth
Unknown
Elevation
Unknown
Doppler factor
Unknown
Orbital elements
Apogee altitude
1,410.864 km
Perigee altitude
1,395.998 km
Semi-major axis
7,781.568 km
Eccentricity
0.00096
Inclination
82.5754°
RAAN
56.1529°
Arg. of periapsis
151.6291°
True anomaly
270.25694°
Mean anomaly
270.3664°
Eccentric anomaly
270.31167°
Mean motion
3.16186 °/min
Orbital period
113.86 mins
BSTAR
0.000089631
Loading maneuver chart data...
Computing Atmospheric mass density...
Loading historical data...
Loading historical data...
Loading historical data...
Loading historical data...
Loading historical data...
Loading historical data...
Loading historical data...

Documentation

Showing up to 5 results
|